User: anonymous
Location: Nebula Knoll Observatory
(43.6666°N, 71.0000°W)
Time: 02:15:20
(UTC-04:00)
Language:

Cosmos 1782 - Orbit

View from above orbital plane
View from above orbital plane
View from above satellite
View from above satellite

Ground track
Ground track

The orbit data is extracted from the following two-line orbital elements,

1 16986U 86074A   14232.47789578  .00001613  00000-0  11774-3 0  8243
2 16986 082.5071 043.0997 0010880 258.8217 101.1785 15.03017277515633
Epoch (UTC): 20 August 2014 11:28:10
Eccentricity: 0.0010880
inclination: 82.5071°
perigee height: 550 km
apogee height: 565 km
right ascension of ascending node: 43.0997°
argument of perigee: 258.8217°
revolutions per day: 15.03017277
mean anomaly at epoch: 101.1785°
orbit number at epoch: 51563

The dashed part of the orbit path shows where the satellite is in the earth's shadow,  

DLR